Flag for Germany Weather past 2 weeks in Kornwestheim, Baden-Württemberg, Germany

Now
39 °F

Broken clouds.


Feels Like: 33 °F
Forecast: 32 / 39 °F
Wind: 9 mph from Southwest

Location: Stuttgart-Echterdingen

Current Time: Jan 29, 2015 at 3:51:39 PM

Latest Report: Jan 29, 2015 at 3:20 PM


Visibility: N/A

Pressure: 29.21 "Hg

Humidity: 75%

Dew point: 32 °F

Location of KornwestheimLocation

Historic Weather in Kornwestheim — Graph

°F

Kornwestheim temperature yesterday

Maximum temperature yesterday: 39 °F (at 2:20 PM)
Minimum temperature yesterday: 34 °F (at 12:20 AM)
Average temperature yesterday: 36 °F

Past Weeks' High & Low Weather Summary

 TemperatureHumidityPressure
High48 °F (Jan 15, 2:50 PM)100% (Jan 15, 2:20 AM)30.39 "Hg (Jan 15, 2:20 AM)
Low27 °F (Jan 18, 6:20 AM)57% (Jan 15, 7:20 PM)29.24 "Hg (Jan 29, 2:20 PM)
Average35 °F87%29.97 "Hg
* Reported Jan 14 2:20 PM — Jan 29 2:50 PM, Kornwestheim, Weather by CustomWeather, © 2014

Note: Actual official high and low records may vary slightly from our data, if they occured in-between our weather recording intervals... More about our weather records

Advertising

Kornwestheim weather history for previous 24 hours

 ConditionsComfort  
Time TempWeatherWind HumidityBarometerVisibility
2:50 PM
Jan 29
39 °FLight rain. Broken clouds.10 mph75%29.24 "HgN/A
2:20 PM39 °FBroken clouds.13 mph75%29.24 "HgN/A
1:50 PM39 °FPartly sunny.12 mph75%29.27 "HgN/A
1:20 PM39 °FBroken clouds.9 mph70%29.30 "HgN/A
12:50 PM39 °FBroken clouds.13 mph65%29.33 "HgN/A
12:20 PM39 °FSunny.10 mph65%29.36 "Hg10 mi
11:50 AM37 °FSunny.13 mph70%29.39 "Hg10 mi
11:20 AM36 °FSunny.10 mph70%29.42 "Hg10 mi
10:50 AM37 °FSunny.12 mph70%29.45 "Hg10 mi
10:20 AM36 °FSunny.13 mph75%29.45 "Hg10 mi
9:50 AM34 °FSunny.8 mph81%29.47 "Hg10 mi
9:20 AM34 °FSunny.10 mph81%29.47 "Hg10 mi
8:50 AM34 °FSunny.13 mph81%29.50 "Hg10 mi
8:20 AM34 °FSunny.12 mph81%29.50 "Hg10 mi
7:50 AM34 °FClear.10 mph81%29.50 "Hg10 mi
7:20 AM34 °FClear.8 mph81%29.53 "Hg10 mi
6:50 AM34 °FPassing clouds.8 mph81%29.53 "HgN/A
6:20 AM34 °FPassing clouds.6 mph81%29.53 "HgN/A
5:50 AM34 °FPassing clouds.7 mph81%29.53 "HgN/A
5:20 AM34 °FPartly cloudy.7 mph87%29.53 "HgN/A
4:50 AM34 °FPartly cloudy.6 mph87%29.53 "HgN/A
4:20 AM34 °FPassing clouds.6 mph93%29.56 "HgN/A
3:50 AM34 °FPassing clouds.8 mph87%29.56 "HgN/A
3:20 AM34 °FLight rain. Partly cloudy.14 mph93%29.56 "HgN/A
2:50 AM34 °FLight rain. Overcast.14 mph93%29.56 "HgN/A
2:20 AM36 °FPartly cloudy.8 mph87%29.56 "HgN/A
1:50 AM36 °FPassing clouds.12 mph87%29.56 "HgN/A
1:20 AM37 °FLight rain. Partly cloudy.13 mph81%29.56 "HgN/A
12:50 AM37 °FLight rain. Partly cloudy.14 mph87%29.56 "HgN/A
12:20 AM37 °FRain. Partly cloudy.13 mph93%29.56 "HgN/A
11:50 PM
Jan 28
39 °FLight rain. Partly cloudy.10 mph87%29.53 "HgN/A
11:20 PM37 °FLight rain. Partly cloudy.8 mph87%29.53 "HgN/A
10:20 PM37 °FLight rain. Partly cloudy.14 mph81%29.56 "HgN/A
9:50 PM39 °FLight rain. Passing clouds.14 mph75%29.56 "HgN/A
9:20 PM39 °FLight rain. Passing clouds.14 mph75%29.59 "HgN/A
8:50 PM39 °FLight rain. Passing clouds.15 mph75%29.59 "HgN/A
8:20 PM39 °FPassing clouds.12 mph70%29.62 "HgN/A
7:50 PM37 °FPassing clouds.15 mph75%29.62 "HgN/A
7:20 PM39 °FPassing clouds.17 mph70%29.65 "HgN/A
6:50 PM37 °FPassing clouds.12 mph75%29.68 "HgN/A
6:20 PM37 °FPartly cloudy.12 mph75%29.71 "HgN/A
5:50 PM37 °FPassing clouds.10 mph75%29.74 "HgN/A
5:20 PM37 °FPassing clouds.13 mph75%29.77 "HgN/A
4:50 PM39 °FPartly sunny.9 mph70%29.80 "HgN/A
4:20 PM39 °FPartly sunny.12 mph70%29.83 "HgN/A
3:50 PM39 °FPartly sunny.10 mph70%29.83 "HgN/A
3:20 PM39 °FPartly sunny.8 mph75%29.86 "HgN/A
Weather by CustomWeather, © 2014

See weather overviewHow to use our weather pages